FW2075 Weather Reports


Display with metric or nautical units.
time (UTC)temp
F
wind
direction
speed
MPH
gust
MPH
rain 1hr
in
rain 24hr
in
rain mn
in
humidity
%
barometer
mb
20260507231503 48 193 2.0 12.0 0.00 1.09 1.09 94 1002.6
20260507230004 49 139 7.0 12.0 0.00 1.09 1.09 94 1002.6
20260507224506 50 187 6.0 11.0 0.00 1.09 1.09 94 1002.5
20260507223002 50 215 5.0 14.0 0.00 1.09 1.09 94 1002.3
20260507221501 50 164 9.0 16.0 0.01 1.09 1.09 94 1002.3
20260507220100 50 157 9.0 15.0 0.01 1.09 1.09 94 1002.5
20260507214601 50 169 8.0 20.0 0.01 1.09 1.09 94 1002.5
20260507213107 50 141 9.0 17.0 0.02 1.09 1.09 94 1002.3
20260507211558 50 186 12.0 20.0 0.03 1.09 1.09 94 1002.3
20260507210058 49 169 9.0 17.0 0.07 1.09 1.09 94 1001.5
20260507204559 49 136 10.0 15.0 0.12 1.09 1.09 94 1002.4
20260507203100 49 157 9.0 14.0 0.19 1.08 1.08 94 1003.0
20260507201551 48 158 6.0 13.0 0.28 1.06 1.06 94 1003.6
20260507200052 48 146 8.0 14.0 0.36 1.02 1.02 94 1003.7
20260507194547 48 132 8.0 14.0 0.43 0.97 0.97 94 1003.9
20260507193050 47 161 8.0 15.0 0.47 0.89 0.89 93 1004.6
20260507191543 47 197 8.0 19.0 0.49 0.76 0.76 93 1005.4
20260507190039 50 219 8.0 21.0 0.46 0.65 0.65 93 1005.3
20260507184539 52 228 8.0 17.0 0.37 0.54 0.54 93 1005.0
20260507183042 52 160 9.0 18.0 0.27 0.42 0.42 93 1005.0
20260507181536 52 180 7.0 20.0 0.12 0.27 0.27 93 1005.8
20260507180041 52 153 11.0 18.0 0.04 0.19 0.19 93 1004.9
20260507174536 52 136 11.0 23.0 0.02 0.17 0.17 93 1004.6
20260507173034 52 142 12.0 20.0 0.00 0.15 0.15 93 1005.1
20260507171531 53 150 12.0 20.0 0.01 0.15 0.15 93 1005.4
20260507170029 53 160 12.0 21.0 0.03 0.15 0.15 93 1005.4
20260507164528 52 204 8.0 21.0 0.03 0.15 0.15 93 1006.4
20260507163025 52 150 10.0 23.0 0.03 0.15 0.15 93 1006.5
20260507161538 52 151 11.0 20.0 0.03 0.14 0.14 93 1006.9
20260507160029 52 126 10.0 17.0 0.01 0.12 0.12 93 1007.6
20260507154520 52 174 12.0 21.0 0.01 0.12 0.12 93 1007.8
20260507153016 52 159 12.0 21.0 0.01 0.12 0.12 92 1008.4
20260507151614 52 147 12.0 19.0 0.00 0.11 0.11 92 1008.7
20260507150015 53 151 12.0 24.0 0.00 0.11 0.11 92 1008.7
20260507144512 53 166 13.0 20.0 0.00 0.11 0.11 92 1009.0
20260507143011 53 144 13.0 21.0 0.00 0.11 0.11 93 1009.2
20260507141508 53 169 13.0 21.0 0.00 0.11 0.11 93 1009.6
20260507140013 53 168 13.0 22.0 0.00 0.11 0.11 93 1009.9
20260507134520 52 188 13.0 21.0 0.00 0.11 0.11 93 1010.2
20260507133009 52 159 13.0 25.0 0.00 0.11 0.11 93 1010.1
20260507131511 52 145 12.0 25.0 0.00 0.11 0.11 93 1010.4
20260507130003 53 159 12.0 26.0 0.00 0.11 0.11 93 1010.4
20260507124502 53 167 14.0 27.0 0.00 0.11 0.11 94 1010.3
20260507123108 53 169 10.0 21.0 0.00 0.11 0.11 94 1010.8
20260507121608 53 153 11.0 22.0 0.01 0.11 0.11 94 1010.5
20260507120057 52 117 13.0 20.0 0.01 0.11 0.11 94 1010.8
20260507114600 52 139 12.0 19.0 0.02 0.11 0.11 94 1011.2
20260507113054 52 172 10.0 18.0 0.03 0.11 0.11 94 1011.8
20260507111554 52 139 10.0 22.0 0.04 0.10 0.10 94 1011.6
20260507110106 52 193 12.0 19.0 0.04 0.10 0.10 94 1012.0
20260507104552 52 184 12.0 26.0 0.03 0.09 0.09 94 1011.7
20260507103054 52 169 12.0 21.0 0.02 0.08 0.08 94 1012.5
20260507101550 52 161 9.0 17.0 0.01 0.06 0.06 94 1012.3
20260507100049 52 184 9.0 16.0 0.01 0.06 0.06 94 1012.6
20260507094553 53 160 3.0 14.0 0.01 0.06 0.06 94 1012.7
20260507093055 53 163 7.0 17.0 0.01 0.06 0.06 94 1012.5
20260507091607 53 173 10.0 16.0 0.00 0.06 0.06 94 1012.2
20260507090047 53 157 6.0 13.0 0.02 0.06 0.06 94 1012.4
20260507084544 54 153 8.0 22.0 0.02 0.06 0.06 94 1012.8
20260507083040 53 189 10.0 20.0 0.05 0.06 0.06 94 1012.5
20260507081538 52 174 10.0 21.0 0.05 0.06 0.06 94 1012.9
20260507080033 51 161 8.0 14.0 0.03 0.03 0.03 94 1012.8
20260507074541 50 145 11.0 18.0 0.03 0.03 0.03 94 1012.9
20260507073028 50 171 10.0 19.0 0.01 0.01 0.01 94 1013.4
20260507071527 49 197 10.0 18.0 0.01 0.01 0.01 93 1013.5
20260507070026 49 177 11.0 20.0 0.00 0.00 0.00 93 1013.7
20260507064523 49 157 11.0 18.0 0.00 0.00 0.00 93 1014.1
20260507063023 49 159 9.0 20.0 0.00 0.00 0.00 93 1014.3
20260507061519 50 142 9.0 22.0 0.00 0.00 0.00 93 1014.3
20260507060016 50 175 9.0 17.0 0.00 0.00 0.00 93 1014.6
20260507054514 50 159 7.0 13.0 0.00 0.00 0.00 93 1015.0
20260507053011 50 170 6.0 11.0 0.00 0.00 0.00 93 1015.2
20260507051506 50 174 3.0 11.0 0.00 0.00 0.00 93 1015.7
20260507050003 49 194 3.0 9.0 0.00 0.00 0.00 93 1016.1
20260507044501 49 160 5.0 10.0 0.00 0.00 0.00 93 1016.4
20260507043101 49 175 4.0 10.0 0.00 0.00 0.00 93 1016.7
20260507041556 49 168 5.0 8.0 0.00 0.00 0.00 92 1017.0
20260507040053 49 168 5.0 9.0 0.00 0.00 0.00 92 1017.4
20260507034558 49 139 5.0 11.0 0.00 0.00 0.00 92 1017.5
20260507033049 49 165 5.0 11.0 0.00 0.00 0.00 92 1017.7
20260507031546 49 219 4.0 11.0 0.00 0.00 0.00 92 1018.0
20260507030043 49 161 4.0 11.0 0.00 0.00 0.00 92 1018.2
20260507024553 49 174 4.0 9.0 0.00 0.00 0.00 92 1018.4
20260507023041 49 170 6.0 12.0 0.00 0.00 0.00 91 1018.6
20260507021547 50 161 4.0 9.0 0.00 0.00 0.00 91 1018.7
20260507020046 50 202 3.0 12.0 0.00 0.00 0.00 91 1018.9
20260507014543 50 136 5.0 9.0 0.00 0.00 0.00 91 1018.8
20260507013039 50 194 3.0 11.0 0.00 0.00 0.00 91 1018.9
20260507011543 50 200 4.0 9.0 0.00 0.00 0.00 90 1019.0
20260507010047 51 174 3.0 8.0 0.00 0.00 0.00 90 1019.5
20260507004537 51 151 4.0 9.0 0.00 0.00 0.00 90 1019.4
20260507003039 51 161 5.0 11.0 0.00 0.00 0.00 90 1019.2
20260507001542 51 187 7.0 15.0 0.00 0.00 0.00 90 1019.3
20260507000034 51 166 7.0 17.0 0.00 0.00 0.00 89 1019.1
20260506234534 51 189 9.0 17.0 0.00 0.00 0.00 89 1019.1
20260506233033 51 191 10.0 17.0 0.00 0.00 0.00 89 1018.7